sat.trackr.live / text

‹ back to catalog

STARLINK-4183

NORAD 53014 · 2022-076AE

PAYLOAD ACTIVE UNKNOWN

§ Identity

Operator
Country
US
Launch date
2022-07-07
Launch site
AFETR
Launch vehicle
Mass (kg)
RCS (m²)

Purposes: comms

External: N2YO · Heavens-Above · Gunter

§ Orbital elements

Epoch: 2026-05-25T03:35:38.037120Z

Period
95.44 min
Inclination
53.2147°
Eccentricity
0.0001464
Mean motion
15.08842199 rev/d
Perigee alt
538.7 km
Apogee alt
540.7 km
Semi-major
6,917.9 km
B*
3.3931e-5
RAAN
100.8759°
Arg perigee
83.4321°
Mean anomaly
276.6837°
Rev number
21,452

§ Raw data

STARLINK-41831 53014U 22076AE  26145.14974580  .00000252  00000+0  33931-4 0  99972 53014  53.2147 100.8759 0001464  83.4321 276.6837 15.08842199214523

JSON: /api/v1/satellites/53014 · /tle

For live sub-satellite position, see the globe view (requires WebGL).

§ Visibility from observer

Set your observer location to see the next 7 days of passes ≥ 10°. The values pass through the URL so the page stays shareable.

No JS? Fill the form by hand. The geolocation button needs JavaScript.